Location: Salillas
(41.9950°N, 0.2228°W)
Time: 21:24:10
(UTC+00:00)

IRIDIUM 114 - Pass Details

Date: 29 March 2020
Orbit: 776 x 779 km, 86.4° (Epoch: 31 May)

Event Time Altitude Azimuth Distance (km) Brightness Sun altitude
Rises 19:55:21 0° 1° (N) 3,273 7.8 -17.3°
Reaches altitude 10° 19:57:46 10° 6° (N) 2,341 7.0 -17.7°
Maximum altitude 20:02:54 55° 84° (E) 930 4.4 -18.6°
Enters shadow 20:05:22 29° 149° (SSE) 1,389 5.2 -19.0°
